Regional Weather Roundup
Issued by NWS

Home | Current Version | Previous Version | Graphics & Text | Print | Product List | Glossary On
Versions: 1 2 3 4 5 6 7 8 9 10 11 12 13 14 15 16 17 18 19 20 21 22 23 24 25 26 27 28 29 30 31 32 33 34 35 36 37 38 39 40 41 42 43 44 45 46 47 48 49 50
000
ASUS43 KMKX 021300
RWRWI

WISCONSIN REGIONAL WEATHER ROUNDUP
NATIONAL WEATHER SERVICE MILWAUKEE/SULLIVAN WI
800 AM CDT WED SEP 02 2015

NOTE: "FAIR" INDICATES FEW OR NO CLOUDS BELOW 12,000 FEET WITH NO
SIGNIFICANT WEATHER AND/OR OBSTRUCTIONS TO VISIBILITY.

WIZ001-002-006>008-014>016-023>028-021400-
NORTHWEST WISCONSIN

CITY           SKY/WX    TMP DP  RH WIND       PRES   REMARKS
SUPERIOR ARPT  LGT RAIN  64  63  97 E7        29.97R
ASHLAND        LGT RAIN  68  67  96 S8        29.96S FOG
HAYWARD        RAIN      66  64  93 SW5       30.02R FOG
SIREN          LGT RAIN  66  65  94 E6        29.98F
CUMBERLAND     RAIN      64  63  94 N6        29.98F
RICE LAKE      DRIZZLE   66  64  91 N3        29.99F
CHETEK         LGT RAIN N/A N/A N/A CALM      29.99S
LADYSMITH      LGT RAIN  67  65  93 NE8       30.01F
EAU CLAIRE     CLOUDY    73  71  93 SW5       29.97R
MENOMONIE      CLOUDY    72  71  97 CALM      29.98R
NEW RICHMOND   DRIZZLE   70  70  99 CALM      29.97R
OSCEOLA        LGT RAIN  70  70 100 E5        29.97S
$$

WIZ003>005-009-010-017-018-021400-
NORTH CENTRAL WISCONSIN

CITY           SKY/WX    TMP DP  RH WIND       PRES   REMARKS
MANITOWISH WTR TSTM      65  65 100 NW21G32   30.03R
ARBOR VITAE    CLOUDY    72  71  96 W6        30.01R THUNDER FOG
WOODRUFF       CLOUDY    72  71  96 W6        30.01R THUNDER FOG
RHINELANDER    CLOUDY    71  70  96 SW6       30.01R FOG
EAGLE RIVER    CLOUDY    67  67 100 CALM      29.99S FOG
LAND O LAKES   TSTM      65  65 100 S5        30.00F VSB 1
PHILLIPS       CLOUDY    66  64  94 CALM      30.02R
TOMAHAWK       CLOUDY    69  68  96 CALM      30.00R FOG
MEDFORD        CLOUDY    71  71  99 SW5       30.01R FOG
MERRILL          N/A     68  68 100 CALM      30.00S FOG
$$

WIZ029-030-035-036-043>047-021400-
CENTRAL WISCONSIN

CITY           SKY/WX    TMP DP  RH WIND       PRES   REMARKS
WAUSAU         CLOUDY    72  71  97 SW3       29.99R FOG
MOSINEE        MOSUNNY   72  72 100 S6        30.01S FOG
MARSHFIELD     FOG       71  68  90 S3        30.00S VSB 1/4
STEVENS POINT  PTSUNNY   71  70  99 S6        30.01S FOG
WAUPACA        MOSUNNY   73  72  96 CALM      30.00S FOG
WAUTOMA        PTSUNNY   72  72 100 CALM      30.02R FOG
WISC RAPIDS    PTSUNNY   74  70  87 SW5       30.01S FOG
CAMP DOUGLAS   NOT AVBL
$$

WIZ011>013-019>022-031-037>040-048>050-021400-
NORTHEAST WISCONSIN

CITY           SKY/WX    TMP DP  RH WIND       PRES   REMARKS
ANTIGO         FOG       68  68 100 CALM      30.01F VSB 1/4
SHAWANO        CLOUDY    72  71  96 CALM      29.99S FOG
OCONTO         MOSUNNY   70  70 100 CALM      29.97S
STURGEON BAY   SUNNY     73  70  88 W3        30.01S
GREEN BAY      FOG       73  72  96 CALM      29.99S VSB 1
MANITOWOC      NOT AVBL
APPLETON       PTSUNNY   73  73 100 SW9       29.99S FOG
CLINTONVILLE   MOSUNNY   70  70 100 CALM      29.99S FOG
OSHKOSH        SUNNY     74  70  87 S7        30.01R FOG
$$

WIZ032>034-041-042-053>061-021400-
SOUTHWEST WISCONSIN

CITY           SKY/WX    TMP DP  RH WIND       PRES   REMARKS
LA CROSSE      PTSUNNY   75  69  81 S7        29.96S
SPARTA         CLOUDY    67  65  94 E5        29.98F FOG
VIROQUA          N/A     72  70  95 S5        30.01R
BOSCOBEL       FOG       69  68  96 CALM      30.00F VSB 1/4
PRAIRIE DU CHI PTSUNNY   73  67  83 E5        29.99S
PLATTEVILLE    CLOUDY    70  69  96 SE7       30.04R
$$

WIZ056-057-062-063-064-067-068-021400-
SOUTH CENTRAL WISCONSIN

CITY           SKY/WX    TMP DP  RH WIND       PRES   REMARKS
REEDSBURG      MOSUNNY   69  68  98 CALM      30.00F
BARABOO/DELLS  MOSUNNY   71  67  88 CALM      30.02S
LONE ROCK      MOSUNNY   69  67  93 E3        30.02S FOG
MINERAL POINT  MOSUNNY   70  68  94 S5        30.05R FOG
MADISON        PTSUNNY   73  69  87 S6        30.03R
MIDDLETON      SUNNY     73  69  87 S3        30.04R
WATERTOWN      MOSUNNY   69  69 100 CALM      30.04R FOG
MONROE         MOSUNNY   72  68  88 SW7       30.05S
JANESVILLE     SUNNY     72  70  94 CALM      30.05R FOG
$$

WIZ051-052-058>065-066-070>072-021400-
SOUTHEAST WISCONSIN

CITY           SKY/WX    TMP DP  RH WIND       PRES   REMARKS
MILWAUKEE      MOSUNNY   75  68  78 SW5       30.04R
WAUKESHA       MOSUNNY   72  68  88 SW3       30.06R
MILWAUKEE/TIMM SUNNY     73  66  78 SW5       30.05R
RACINE         MOSUNNY   75  68  78 CALM      30.06R
BURLINGTON     MOSUNNY   68  68  98 CALM      30.05R FOG
KENOSHA        SUNNY     74  69  85 SW6       30.05R
FOND DU LAC    SUNNY     73  71  93 S5        30.02R
SHEBOYGAN      SUNNY     75  72  90 SW7       30.02R
WEST BEND      SUNNY     70  68  94 CALM      30.04R
JUNEAU         SUNNY     69  68  98 SE3       30.05R FOG
$$

LSZ147-162-021400-
LAKE SUPERIOR

STATION/POSITION TIME  TEMP    WIND        PRES    WAVE
                       AIR SEA DIR/SP/G            HT/PER
                 (UTC) (F)     (DEG/KT/KT) (MB)    (FT/S)
W MID LAKE BUOY  1150   57 56   40/  6/  8 1014.5R   0
DEVILS ISLAND    1200   60      70/  5/  6 1014.4R
PORT WING        1200   63      70/  1/  3 1013.5F
SAXON HARBOR     1200   71     210/  5/ 10 1014.2
$$

LMZ867-665-643>646-021400-
LAKE MICHIGAN

STATION/POSITION TIME  TEMP    WIND        PRES    WAVE
                       AIR SEA DIR/SP/G            HT/PER
                 (UTC) (F)     (DEG/KT/KT) (MB)    (FT/S)
CHAMBERS ISLAND  1200   68     190/  2/  5 1014.9R
N MID LAKE BUOY  1150   66 65  200/  4/  6 1014.7R   1/ 4
NORTHPORT PIER   1200   65      CALM  /  1 1014.9R
SISTER BAY       1219   70        CALM       N/A
ALGOMA LAKESHORE 1244             CALM       N/A
KEWAUNEE LAKESHO 1200   55     180/  2/  4 1014.4R
SHEBOYGAN LAKESH 1200   74     250/  9/ 11 1015.8R
PORT WASHINGTON  1200   75     280/  4/  7 1016.9R
ATWATER BUOY     1200   68 51  240/  6/  8 1018.0R
MILWAUKEE LAKESH 1210   76     260/  7/  9   N/A
S MID LAKE BUOY  1150   72 70  210/ 10/ 12 1016.2R   1/ 3
KENOSHA   LAKESH 1200   72     220/  4/  5 1016.9R
$$

TC  - TEMPERATURE IN CELSIUS
VSB - VISIBILITY IN STATUTE MILES
WCI - WIND CHILL INDEX
HX  - HEAT INDEX




USA.gov is the U.S. government's official web portal to all federal, state and local government web resources and services.